Flag for U.S.A. Weather past 2 weeks in Germantown, Maryland, U.S.A.

Now
52 °F

Clear.


Feels Like: 52 °F
Forecast: 53 / 82 °F
Wind: No wind

Location: Frederick Municipal Airport

Current Time: May 23, 2015 at 11:45:51 PM

Latest Report: May 23, 2015 at 10:45 PM


Visibility: 10 mi

Pressure: 30.40 "Hg

Humidity: 82%

Dew point: 46 °F

Location of GermantownLocation

Historic Weather in Germantown — Graph

°F

Germantown temperature yesterday

Maximum temperature yesterday: 75 °F (at 3:50 PM)
Minimum temperature yesterday: 46 °F (at 5:00 AM)
Average temperature yesterday: 58 °F

Past Weeks' High & Low Weather Summary

 TemperatureHumidityPressure
High91 °F (May 18, 3:59 PM)100% (May 16, 2:40 AM)30.50 "Hg (May 16, 2:40 AM)
Low39 °F (May 14, 5:55 AM)15% (May 12, 4:55 PM)29.87 "Hg (May 19, 4:50 PM)
Average65 °F69%30.15 "Hg
* Reported May 8 10:00 PM — May 23 10:25 PM, Germantown, Weather by CustomWeather, © 2015

Note: Actual official high and low records may vary slightly from our data, if they occured in-between our weather recording intervals... More about our weather records

Advertising

Germantown weather history for previous 24 hours

 ConditionsComfort  
Time TempWeatherWind HumidityBarometerVisibility
10:25 PM
Sat, May 23
52 °FClear.No wind88%30.40 "Hg10 mi
10:05 PM54 °FClear.No wind77%30.39 "Hg10 mi
9:45 PM55 °FClear.No wind72%30.38 "Hg10 mi
9:25 PM57 °FClear.3 mph63%30.38 "Hg10 mi
9:05 PM59 °FSunny.3 mph59%30.38 "Hg10 mi
8:45 PM63 °FSunny.3 mph49%30.37 "Hg10 mi
7:45 PM68 °FSunny.No wind43%30.38 "Hg10 mi
6:50 PM72 °FSunny.3 mph31%30.38 "Hg10 mi
5:52 PM72 °FSunny.3 mph29%30.39 "Hg10 mi
4:50 PM72 °FSunny.7 mph31%30.40 "Hg10 mi
3:45 PM72 °FSunny.5 mph29%30.42 "Hg10 mi
2:47 PM70 °FSunny.5 mph29%30.43 "Hg10 mi
1:55 PMN/ASunny.No windN/AN/A10 mi
12:47 PM66 °FMild.No wind35%30.47 "HgN/A
11:45 AM64 °FSunny.No wind32%30.49 "Hg10 mi
10:45 AM63 °FSunny.5 mph32%30.49 "Hg10 mi
9:52 AM61 °FSunny.No wind39%30.49 "Hg10 mi
8:47 AM55 °FSunny.No wind51%30.48 "Hg10 mi
7:47 AM46 °FSunny.No wind93%30.46 "Hg10 mi
6:45 AM43 °FClear.No wind93%30.45 "Hg10 mi
6:20 AM41 °FClear.No wind87%30.43 "Hg10 mi
6:00 AM39 °FClear.No wind93%30.42 "Hg10 mi
5:40 AM41 °FClear.No wind87%30.41 "Hg10 mi
5:20 AM41 °FClear.5 mph81%30.40 "Hg10 mi
5:00 AM41 °FClear.3 mph87%30.40 "Hg10 mi
4:40 AM43 °FClear.No wind76%30.38 "Hg10 mi
4:20 AM45 °FClear.No wind66%30.37 "Hg10 mi
4:00 AM45 °FClear.No wind61%30.37 "Hg10 mi
3:40 AM43 °FClear.6 mph71%30.36 "Hg10 mi
3:20 AM45 °FClear.6 mph66%30.36 "Hg10 mi
3:00 AM46 °FClear.No wind62%30.35 "Hg10 mi
2:40 AM46 °FClear.6 mph62%30.34 "Hg10 mi
2:20 AM50 °FClear.No wind54%30.34 "Hg10 mi
1:40 AM54 °FClear.8 mph44%30.32 "Hg10 mi
1:20 AM52 °FClear.6 mph50%30.32 "Hg10 mi
1:00 AM52 °FClear.8 mph54%30.32 "Hg10 mi
12:40 AM54 °FClear.3 mph47%30.32 "Hg10 mi
12:20 AM55 °FClear.3 mph44%30.30 "Hg10 mi
12:00 AM57 °FClear.5 mph39%30.29 "Hg10 mi
11:40 PM
Fri, May 22
54 °FClear.6 mph47%30.28 "Hg10 mi
11:20 PM59 °FClear.7 mph39%30.27 "Hg10 mi
11:00 PM59 °FClear.5 mph39%30.26 "Hg10 mi
Weather by CustomWeather, © 2015

See weather overviewHow to use our weather pages